| time (UTC) | temp F | wind direction | speed knots | gust knots | rain 1hr in | rain 24hr in | rain mn in | humidity % | barometer mb |
| 20260905202033 | 74 | 32 | 0.0 | 0.0 | 0.00 | 0.01 | 0.00 | 46 | 1015.2 |
| 20260905201531 | 73 | 70 | 0.0 | 0.0 | 0.00 | 0.01 | 0.00 | 47 | 1015.2 |
| 20260905201030 | 73 | 55 | 0.0 | 0.0 | 0.00 | 0.01 | 0.00 | 48 | 1015.2 |
| 20260905200533 | 72 | 17 | 0.0 | 0.0 | 0.00 | 0.01 | 0.00 | 49 | 1015.2 |
| 20260905200029 | 72 | 29 | 0.0 | 0.0 | 0.00 | 0.01 | 0.00 | 50 | 1015.4 |
| 20260905195526 | 71 | 193 | 0.0 | 0.0 | 0.00 | 0.01 | 0.00 | 52 | 1015.3 |
| 20260905195024 | 70 | 70 | 0.0 | 0.0 | 0.00 | 0.01 | 0.00 | 54 | 1015.4 |
| 20260905194523 | 69 | 325 | 0.0 | 0.0 | 0.00 | 0.01 | 0.00 | 57 | 1015.6 |
| 20260905194021 | 69 | 29 | 0.0 | 0.0 | 0.00 | 0.01 | 0.00 | 57 | 1015.5 |
| 20260905193520 | 69 | 350 | 0.0 | 0.0 | 0.00 | 0.01 | 0.00 | 60 | 1015.5 |
| 20260905193018 | 68 | 344 | 0.0 | 0.0 | 0.00 | 0.01 | 0.00 | 60 | 1015.6 |
| 20260905192520 | 68 | 325 | 0.0 | 0.0 | 0.00 | 0.01 | 0.00 | 62 | 1015.7 |
| 20260905192015 | 67 | 302 | 0.0 | 0.0 | 0.00 | 0.01 | 0.00 | 62 | 1015.8 |
| 20260905191514 | 67 | 286 | 0.0 | 0.0 | 0.00 | 0.01 | 0.00 | 62 | 1015.8 |
| 20260905191012 | 66 | 273 | 0.0 | 0.0 | 0.00 | 0.01 | 0.00 | 64 | 1015.9 |
| 20260905190513 | 66 | 273 | 0.0 | 0.0 | 0.00 | 0.01 | 0.00 | 64 | 1015.9 |
| 20260905190023 | 65 | 247 | 0.0 | 0.0 | 0.00 | 0.01 | 0.00 | 65 | 1016.1 |
| 20260905185508 | 65 | 247 | 0.0 | 0.0 | 0.00 | 0.01 | 0.00 | 65 | 1016.1 |
| 20260905185010 | 65 | 246 | 0.0 | 0.0 | 0.00 | 0.01 | 0.00 | 65 | 1016.2 |
| 20260905184509 | 64 | 237 | 0.0 | 0.0 | 0.00 | 0.01 | 0.00 | 66 | 1016.2 |
| 20260905184007 | 64 | 236 | 0.0 | 0.0 | 0.00 | 0.01 | 0.00 | 65 | 1016.3 |
| 20260905183503 | 63 | 277 | 0.0 | 0.0 | 0.00 | 0.01 | 0.00 | 66 | 1016.4 |
| 20260905183002 | 63 | 277 | 0.0 | 0.0 | 0.00 | 0.01 | 0.00 | 66 | 1016.4 |
| 20260905182600 | 63 | 263 | 0.0 | 0.0 | 0.00 | 0.01 | 0.00 | 66 | 1016.4 |
| 20260905182059 | 62 | 263 | 0.0 | 0.0 | 0.00 | 0.01 | 0.00 | 66 | 1016.4 |
| 20260905181557 | 62 | 263 | 0.0 | 0.0 | 0.00 | 0.01 | 0.00 | 66 | 1016.4 |
| 20260905181055 | 61 | 263 | 0.0 | 0.0 | 0.00 | 0.01 | 0.00 | 65 | 1016.5 |
| 20260905180554 | 61 | 263 | 0.0 | 0.0 | 0.00 | 0.01 | 0.00 | 63 | 1016.5 |
| 20260905180111 | 61 | 264 | 0.0 | 0.0 | 0.00 | 0.01 | 0.00 | 59 | 1016.6 |
| 20260905175552 | 60 | 264 | 0.0 | 0.0 | 0.00 | 0.01 | 0.00 | 54 | 1016.7 |
| 20260905175052 | 60 | 263 | 0.0 | 0.0 | 0.00 | 0.01 | 0.00 | 51 | 1016.6 |
| 20260905174548 | 60 | 253 | 0.0 | 0.0 | 0.00 | 0.01 | 0.00 | 50 | 1016.7 |
| 20260905174047 | 59 | 275 | 0.0 | 0.0 | 0.00 | 0.01 | 0.00 | 42 | 1016.7 |
| 20260905173545 | 59 | 268 | 0.0 | 0.0 | 0.00 | 0.01 | 0.00 | 31 | 1016.7 |
| 20260905173106 | 59 | 278 | 0.0 | 0.0 | 0.00 | 0.01 | 0.00 | 29 | 1016.7 |
| 20260905172542 | 59 | 278 | 0.0 | 0.0 | 0.00 | 0.01 | 0.00 | 31 | 1016.8 |
| 20260905172041 | 58 | 278 | 0.0 | 0.0 | 0.00 | 0.01 | 0.00 | 32 | 1016.9 |
| 20260905171550 | 58 | 278 | 0.0 | 0.0 | 0.00 | 0.01 | 0.00 | 32 | 1016.8 |
| 20260905171037 | 58 | 276 | 0.0 | 0.0 | 0.00 | 0.01 | 0.00 | 24 | 1016.7 |
| 20260905170536 | 58 | 276 | 0.0 | 0.0 | 0.00 | 0.01 | 0.00 | 24 | 1016.7 |
| 20260905170035 | 58 | 276 | 0.0 | 0.0 | 0.00 | 0.01 | 0.00 | 28 | 1016.8 |
| 20260905165535 | 58 | 275 | 0.0 | 0.0 | 0.00 | 0.01 | 0.00 | 18 | 1016.8 |
| 20260905165032 | 58 | 268 | 0.0 | 0.0 | 0.00 | 0.01 | 0.00 | 14 | 1016.7 |
| 20260905164531 | 57 | 267 | 0.0 | 0.0 | 0.00 | 0.01 | 0.00 | 10 | 1016.7 |
| 20260905164029 | 57 | 263 | 0.0 | 0.0 | 0.00 | 0.01 | 0.00 | 8 | 1016.7 |
| 20260905163528 | 57 | 263 | 0.0 | 0.0 | 0.00 | 0.01 | 0.00 | 8 | 1016.7 |
| 20260905163026 | 57 | 252 | 0.0 | 0.0 | 0.00 | 0.01 | 0.00 | 6 | 1016.6 |
| 20260905162525 | 57 | 252 | 0.0 | 0.0 | 0.00 | 0.01 | 0.00 | 4 | 1016.6 |
| 20260905162023 | 56 | 252 | 0.0 | 0.0 | 0.00 | 0.01 | 0.00 | 1 | 1016.6 |
| 20260905161525 | 56 | 252 | 0.0 | 0.0 | 0.00 | 0.01 | 0.00 | 1 | 1016.6 |
| 20260905161023 | 56 | 252 | 0.0 | 0.0 | 0.00 | 0.01 | 0.00 | 1 | 1016.7 |
| 20260905160519 | 56 | 360 | 0.0 | 0.0 | 0.00 | 0.01 | 0.00 | 1 | 1016.6 |
| 20260905160027 | 55 | 252 | 0.0 | 0.0 | 0.00 | 0.01 | 0.00 | 1 | 1016.6 |
| 20260905155516 | 55 | 252 | 0.0 | 0.0 | 0.00 | 0.01 | 0.00 | 1 | 1016.6 |
| 20260905155016 | 55 | 251 | 0.0 | 0.0 | 0.00 | 0.01 | 0.00 | 1 | 1016.6 |
| 20260905154513 | 55 | 252 | 0.0 | 0.0 | 0.00 | 0.01 | 0.00 | 1 | 1016.5 |
| 20260905154014 | 55 | 252 | 0.0 | 0.0 | 0.00 | 0.01 | 0.00 | 1 | 1016.6 |
| 20260905153510 | 54 | 360 | 0.0 | 0.0 | 0.00 | 0.01 | 0.00 | 1 | 1016.6 |
| 20260905153008 | 54 | 360 | 0.0 | 0.0 | 0.00 | 0.01 | 0.00 | 1 | 1016.5 |
| 20260905152507 | 54 | 360 | 0.0 | 0.0 | 0.00 | 0.01 | 0.00 | 1 | 1016.6 |
| 20260905152006 | 54 | 256 | 0.0 | 0.0 | 0.00 | 0.01 | 0.00 | 1 | 1016.7 |
| 20260905151504 | 54 | 256 | 0.0 | 0.0 | 0.00 | 0.01 | 0.00 | 1 | 1016.6 |
| 20260905151002 | 54 | 360 | 0.0 | 0.0 | 0.00 | 0.01 | 0.00 | 1 | 1016.5 |
| 20260905150501 | 53 | 360 | 0.0 | 0.0 | 0.00 | 0.01 | 0.00 | 1 | 1016.6 |
| 20260905150100 | 53 | 256 | 0.0 | 0.0 | 0.00 | 0.01 | 0.00 | 1 | 1016.5 |
| 20260905145559 | 53 | 256 | 0.0 | 0.0 | 0.00 | 0.01 | 0.00 | 1 | 1016.5 |
| 20260905145057 | 53 | 255 | 0.0 | 0.0 | 0.00 | 0.01 | 0.00 | 1 | 1016.5 |
| 20260905144557 | 53 | 256 | 0.0 | 0.0 | 0.00 | 0.01 | 0.00 | 1 | 1016.5 |
| 20260905144054 | 53 | 256 | 0.0 | 0.0 | 0.00 | 0.01 | 0.00 | 1 | 1016.5 |
| 20260905143553 | 53 | 255 | 0.0 | 0.0 | 0.00 | 0.01 | 0.00 | 1 | 1016.5 |
| 20260905143051 | 53 | 256 | 0.0 | 0.0 | 0.00 | 0.01 | 0.00 | 1 | 1016.6 |
| 20260905142553 | 53 | 256 | 0.0 | 0.0 | 0.00 | 0.01 | 0.00 | 1 | 1016.5 |
| 20260905142050 | 53 | 255 | 0.0 | 0.0 | 0.00 | 0.01 | 0.00 | 1 | 1016.5 |
| 20260905141547 | 53 | 256 | 0.0 | 0.0 | 0.00 | 0.01 | 0.00 | 1 | 1016.5 |
| 20260905141045 | 53 | 256 | 0.0 | 0.0 | 0.00 | 0.01 | 0.00 | 1 | 1016.5 |
| 20260905140544 | 53 | 255 | 0.0 | 0.0 | 0.00 | 0.01 | 0.00 | 1 | 1016.4 |
| 20260905140042 | 53 | 259 | 0.0 | 0.0 | 0.00 | 0.01 | 0.00 | 1 | 1016.3 |
| 20260905135545 | 53 | 259 | 0.0 | 0.0 | 0.00 | 0.01 | 0.00 | 1 | 1016.3 |
| 20260905135039 | 53 | 360 | 0.0 | 0.0 | 0.00 | 0.01 | 0.00 | 1 | 1016.1 |
| 20260905134538 | 53 | 259 | 0.0 | 0.0 | 0.00 | 0.01 | 0.00 | 1 | 1016.0 |
| 20260905134037 | 53 | 259 | 0.0 | 0.0 | 0.00 | 0.01 | 0.00 | 1 | 1016.0 |
| 20260905133534 | 53 | 259 | 0.0 | 0.0 | 0.00 | 0.01 | 0.00 | 1 | 1016.1 |
| 20260905133034 | 53 | 259 | 0.0 | 0.0 | 0.00 | 0.01 | 0.00 | 1 | 1016.1 |
| 20260905132532 | 54 | 360 | 0.0 | 0.0 | 0.00 | 0.01 | 0.00 | 1 | 1016.0 |
| 20260905132031 | 54 | 360 | 0.0 | 0.0 | 0.00 | 0.01 | 0.00 | 1 | 1016.0 |
| 20260905131529 | 54 | 259 | 0.0 | 0.0 | 0.00 | 0.01 | 0.00 | 1 | 1016.0 |
| 20260905131027 | 54 | 259 | 0.0 | 0.0 | 0.00 | 0.01 | 0.00 | 1 | 1016.0 |
| 20260905130529 | 54 | 259 | 0.0 | 0.0 | 0.00 | 0.01 | 0.00 | 1 | 1016.0 |
| 20260905130025 | 54 | 259 | 0.0 | 0.0 | 0.00 | 0.01 | 0.00 | 1 | 1015.9 |
| 20260905125523 | 54 | 259 | 0.0 | 0.0 | 0.00 | 0.02 | 0.00 | 1 | 1015.9 |
| 20260905125022 | 54 | 259 | 0.0 | 0.0 | 0.00 | 0.02 | 0.00 | 1 | 1015.9 |
| 20260905124520 | 54 | 259 | 0.0 | 0.0 | 0.00 | 0.02 | 0.00 | 1 | 1016.0 |
| 20260905124018 | 54 | 259 | 0.0 | 0.0 | 0.00 | 0.02 | 0.00 | 1 | 1016.0 |
| 20260905123517 | 54 | 360 | 0.0 | 0.0 | 0.00 | 0.02 | 0.00 | 1 | 1015.9 |
| 20260905123016 | 54 | 259 | 0.0 | 0.0 | 0.00 | 0.02 | 0.00 | 1 | 1016.0 |
| 20260905122516 | 54 | 360 | 0.0 | 0.0 | 0.00 | 0.02 | 0.00 | 1 | 1016.0 |
| 20260905122015 | 54 | 259 | 0.0 | 0.0 | 0.00 | 0.02 | 0.00 | 1 | 1015.9 |
| 20260905121511 | 54 | 259 | 0.0 | 0.0 | 0.00 | 0.02 | 0.00 | 1 | 1016.0 |
| 20260905121012 | 54 | 259 | 0.0 | 0.0 | 0.00 | 0.02 | 0.00 | 1 | 1015.7 |
| 20260905120508 | 54 | 259 | 0.0 | 0.0 | 0.00 | 0.02 | 0.00 | 1 | 1015.8 |
| 20260905120019 | 54 | 259 | 0.0 | 0.0 | 0.00 | 0.03 | 0.00 | 1 | 1015.9 |
| 20260905115506 | 55 | 259 | 0.0 | 0.0 | 0.00 | 0.03 | 0.00 | 1 | 1015.8 |
| 20260905115004 | 55 | 360 | 0.0 | 0.0 | 0.00 | 0.03 | 0.00 | 1 | 1015.8 |
| 20260905114503 | 55 | 259 | 0.0 | 0.0 | 0.00 | 0.03 | 0.00 | 1 | 1015.8 |
| 20260905114001 | 55 | 259 | 0.0 | 0.0 | 0.00 | 0.03 | 0.00 | 1 | 1015.8 |
| 20260905113600 | 55 | 259 | 0.0 | 0.0 | 0.00 | 0.03 | 0.00 | 1 | 1015.8 |
| 20260905113100 | 55 | 259 | 0.0 | 0.0 | 0.00 | 0.03 | 0.00 | 2 | 1015.8 |
| 20260905112557 | 55 | 259 | 0.0 | 0.0 | 0.00 | 0.03 | 0.00 | 2 | 1015.7 |
| 20260905112055 | 55 | 360 | 0.0 | 0.0 | 0.00 | 0.03 | 0.00 | 3 | 1015.6 |
| 20260905111646 | 55 | 259 | 0.0 | 0.0 | 0.00 | 0.03 | 0.00 | 3 | 1015.7 |
| 20260905111052 | 55 | 259 | 0.0 | 0.0 | 0.00 | 0.03 | 0.00 | 3 | 1015.7 |
| 20260905110551 | 55 | 259 | 0.0 | 0.0 | 0.00 | 0.03 | 0.00 | 4 | 1015.6 |
| 20260905110049 | 55 | 259 | 0.0 | 0.0 | 0.00 | 0.03 | 0.00 | 6 | 1015.6 |
| 20260905105548 | 55 | 259 | 0.0 | 0.0 | 0.00 | 0.03 | 0.00 | 6 | 1015.5 |
| 20260905105046 | 56 | 360 | 0.0 | 0.0 | 0.00 | 0.03 | 0.00 | 8 | 1015.5 |
| 20260905104545 | 56 | 259 | 0.0 | 0.0 | 0.00 | 0.03 | 0.00 | 8 | 1015.6 |
| 20260905104043 | 56 | 259 | 0.0 | 0.0 | 0.00 | 0.03 | 0.00 | 8 | 1015.7 |
| 20260905103544 | 56 | 259 | 0.0 | 0.0 | 0.00 | 0.03 | 0.00 | 8 | 1015.7 |
| 20260905103041 | 56 | 259 | 0.0 | 0.0 | 0.00 | 0.03 | 0.00 | 7 | 1015.5 |
| 20260905102542 | 56 | 259 | 0.0 | 0.0 | 0.00 | 0.03 | 0.00 | 7 | 1015.5 |
| 20260905102038 | 56 | 259 | 0.0 | 0.0 | 0.00 | 0.03 | 0.00 | 6 | 1015.5 |
| 20260905101537 | 56 | 259 | 0.0 | 0.0 | 0.00 | 0.03 | 0.00 | 7 | 1015.5 |
| 20260905101034 | 56 | 259 | 0.0 | 0.0 | 0.00 | 0.03 | 0.00 | 7 | 1015.6 |
| 20260905100533 | 56 | 259 | 0.0 | 0.0 | 0.00 | 0.03 | 0.00 | 7 | 1015.6 |
| 20260905100031 | 56 | 259 | 0.0 | 0.0 | 0.00 | 0.03 | 0.00 | 7 | 1015.6 |
| 20260905095530 | 56 | 259 | 0.0 | 0.0 | 0.00 | 0.03 | 0.00 | 7 | 1015.6 |
| 20260905095032 | 56 | 259 | 0.0 | 0.0 | 0.00 | 0.03 | 0.00 | 7 | 1015.6 |
| 20260905094528 | 56 | 259 | 0.0 | 0.0 | 0.00 | 0.03 | 0.00 | 7 | 1015.7 |
| 20260905094026 | 56 | 259 | 0.0 | 0.0 | 0.00 | 0.03 | 0.00 | 8 | 1015.7 |
| 20260905093525 | 57 | 259 | 0.0 | 0.0 | 0.00 | 0.03 | 0.00 | 8 | 1015.8 |
| 20260905093024 | 57 | 259 | 0.0 | 0.0 | 0.00 | 0.03 | 0.00 | 8 | 1015.7 |
| 20260905092526 | 57 | 257 | 0.0 | 0.0 | 0.00 | 0.03 | 0.00 | 8 | 1015.6 |
| 20260905092020 | 57 | 265 | 0.0 | 0.0 | 0.00 | 0.03 | 0.00 | 7 | 1015.6 |
| 20260905091520 | 57 | 265 | 0.0 | 0.0 | 0.00 | 0.03 | 0.00 | 7 | 1015.5 |
| 20260905091018 | 57 | 265 | 0.0 | 0.0 | 0.00 | 0.03 | 0.00 | 6 | 1015.5 |
| 20260905090515 | 57 | 265 | 0.0 | 0.0 | 0.00 | 0.03 | 0.00 | 7 | 1015.6 |
| 20260905090016 | 57 | 256 | 0.0 | 0.0 | 0.00 | 0.03 | 0.00 | 8 | 1015.5 |
| 20260905085513 | 57 | 234 | 0.0 | 0.0 | 0.00 | 0.03 | 0.00 | 9 | 1015.5 |
| 20260905085013 | 57 | 234 | 0.0 | 0.0 | 0.00 | 0.03 | 0.00 | 10 | 1015.5 |
| 20260905084511 | 57 | 233 | 0.0 | 0.0 | 0.00 | 0.03 | 0.00 | 12 | 1015.4 |
| 20260905084013 | 57 | 230 | 0.0 | 0.0 | 0.00 | 0.03 | 0.00 | 12 | 1015.5 |
| 20260905083513 | 57 | 257 | 0.0 | 0.0 | 0.00 | 0.03 | 0.00 | 14 | 1015.6 |
| 20260905083010 | 57 | 257 | 0.0 | 0.0 | 0.00 | 0.03 | 0.00 | 16 | 1015.5 |
| 20260905082509 | 57 | 246 | 0.0 | 0.0 | 0.00 | 0.03 | 0.00 | 16 | 1015.5 |
| 20260905082009 | 57 | 239 | 0.0 | 0.0 | 0.00 | 0.03 | 0.00 | 17 | 1015.4 |
| 20260905081508 | 57 | 243 | 0.0 | 0.0 | 0.00 | 0.03 | 0.00 | 18 | 1015.3 |
| 20260905081007 | 57 | 237 | 0.0 | 0.0 | 0.00 | 0.03 | 0.00 | 18 | 1015.4 |
| 20260905080510 | 57 | 237 | 0.0 | 0.0 | 0.00 | 0.03 | 0.00 | 18 | 1015.3 |
| 20260905080006 | 57 | 237 | 0.0 | 0.0 | 0.00 | 0.03 | 0.00 | 17 | 1015.3 |
| 20260905075506 | 57 | 237 | 0.0 | 0.0 | 0.00 | 0.03 | 0.00 | 19 | 1015.3 |
| 20260905075008 | 57 | 237 | 0.0 | 0.0 | 0.00 | 0.03 | 0.00 | 18 | 1015.2 |
| 20260905074506 | 57 | 237 | 0.0 | 0.0 | 0.00 | 0.03 | 0.00 | 19 | 1015.2 |
| 20260905074004 | 57 | 237 | 0.0 | 0.0 | 0.00 | 0.03 | 0.00 | 21 | 1015.0 |
| 20260905073504 | 57 | 237 | 0.0 | 0.0 | 0.00 | 0.03 | 0.00 | 24 | 1015.1 |
| 20260905073002 | 57 | 237 | 0.0 | 0.0 | 0.00 | 0.03 | 0.00 | 26 | 1015.0 |
| 20260905072502 | 57 | 237 | 0.0 | 0.0 | 0.00 | 0.03 | 0.00 | 26 | 1015.0 |
| 20260905072001 | 57 | 237 | 0.0 | 0.0 | 0.00 | 0.03 | 0.00 | 28 | 1014.9 |
| 20260905071501 | 57 | 237 | 0.0 | 0.0 | 0.00 | 0.03 | 0.00 | 29 | 1014.9 |
| 20260905071100 | 57 | 237 | 0.0 | 0.0 | 0.00 | 0.03 | 0.00 | 29 | 1014.8 |
| 20260905070602 | 57 | 237 | 0.0 | 0.0 | 0.00 | 0.03 | 0.00 | 29 | 1014.8 |
| 20260905065556 | 58 | 237 | 0.0 | 0.0 | 0.00 | 0.03 | 0.03 | 31 | 1014.7 |
| 20260905065055 | 58 | 237 | 0.0 | 0.0 | 0.00 | 0.03 | 0.03 | 31 | 1014.7 |
| 20260905064611 | 58 | 237 | 0.0 | 0.0 | 0.00 | 0.03 | 0.03 | 32 | 1014.5 |
| 20260905064052 | 58 | 258 | 0.0 | 0.0 | 0.00 | 0.03 | 0.03 | 34 | 1014.6 |
| 20260905063550 | 58 | 258 | 0.0 | 0.0 | 0.00 | 0.03 | 0.03 | 34 | 1014.6 |
| 20260905063050 | 58 | 258 | 0.0 | 0.0 | 0.00 | 0.03 | 0.03 | 36 | 1014.6 |
| 20260905062548 | 58 | 258 | 0.0 | 0.0 | 0.00 | 0.03 | 0.03 | 37 | 1014.5 |
| 20260905062047 | 58 | 258 | 0.0 | 0.0 | 0.00 | 0.03 | 0.03 | 39 | 1014.6 |
| 20260905061545 | 58 | 258 | 0.0 | 0.0 | 0.00 | 0.03 | 0.03 | 43 | 1014.7 |
| 20260905061045 | 58 | 258 | 0.0 | 0.0 | 0.00 | 0.03 | 0.03 | 45 | 1014.6 |
| 20260905060542 | 58 | 258 | 0.0 | 0.0 | 0.00 | 0.03 | 0.03 | 47 | 1014.6 |
| 20260905060042 | 58 | 258 | 0.0 | 0.0 | 0.00 | 0.03 | 0.03 | 47 | 1014.6 |
| 20260905055539 | 58 | 258 | 0.0 | 0.0 | 0.00 | 0.03 | 0.03 | 48 | 1014.6 |
| 20260905055038 | 58 | 258 | 0.0 | 0.0 | 0.00 | 0.03 | 0.03 | 48 | 1014.7 |
| 20260905054546 | 58 | 258 | 0.0 | 0.0 | 0.00 | 0.03 | 0.03 | 47 | 1014.6 |
| 20260905054037 | 58 | 258 | 0.0 | 0.0 | 0.00 | 0.03 | 0.03 | 48 | 1014.6 |
| 20260905053534 | 58 | 260 | 0.0 | 0.0 | 0.00 | 0.03 | 0.03 | 51 | 1014.4 |
| 20260905053036 | 58 | 260 | 0.0 | 0.0 | 0.00 | 0.03 | 0.03 | 53 | 1014.4 |
| 20260905052531 | 58 | 260 | 0.0 | 0.0 | 0.00 | 0.03 | 0.03 | 54 | 1014.4 |
| 20260905052029 | 58 | 260 | 0.0 | 0.0 | 0.00 | 0.03 | 0.03 | 55 | 1014.3 |
| 20260905051540 | 58 | 260 | 0.0 | 0.0 | 0.00 | 0.03 | 0.03 | 55 | 1014.4 |
| 20260905051025 | 58 | 260 | 0.0 | 0.0 | 0.00 | 0.03 | 0.03 | 55 | 1014.5 |
| 20260905050527 | 58 | 260 | 0.0 | 0.0 | 0.00 | 0.03 | 0.03 | 54 | 1014.4 |
| 20260905050023 | 57 | 260 | 0.0 | 0.0 | 0.00 | 0.03 | 0.03 | 54 | 1014.4 |
| 20260905045521 | 57 | 260 | 0.0 | 0.0 | 0.00 | 0.03 | 0.03 | 55 | 1014.3 |
| 20260905045020 | 57 | 258 | 0.0 | 0.0 | 0.00 | 0.03 | 0.03 | 52 | 1014.3 |
| 20260905044519 | 57 | 259 | 0.0 | 0.0 | 0.00 | 0.03 | 0.03 | 51 | 1014.3 |
| 20260905044018 | 57 | 209 | 0.0 | 0.0 | 0.00 | 0.03 | 0.03 | 48 | 1014.3 |
| 20260905043516 | 57 | 202 | 0.0 | 0.0 | 0.00 | 0.03 | 0.03 | 43 | 1014.3 |
| 20260905043015 | 57 | 202 | 0.0 | 0.0 | 0.00 | 0.03 | 0.03 | 41 | 1014.2 |
| 20260905042513 | 57 | 360 | 0.0 | 0.0 | 0.00 | 0.03 | 0.03 | 40 | 1014.2 |
| 20260905042012 | 57 | 360 | 0.0 | 0.0 | 0.00 | 0.03 | 0.03 | 39 | 1014.2 |
| 20260905041511 | 57 | 360 | 0.0 | 0.0 | 0.00 | 0.03 | 0.03 | 37 | 1014.2 |
| 20260905041008 | 57 | 360 | 0.0 | 0.0 | 0.00 | 0.03 | 0.03 | 38 | 1014.2 |
| 20260905040507 | 57 | 180 | 0.0 | 0.0 | 0.00 | 0.03 | 0.03 | 35 | 1014.2 |
| 20260905040014 | 57 | 185 | 0.0 | 0.0 | 0.00 | 0.03 | 0.03 | 35 | 1014.1 |
| 20260905035504 | 57 | 360 | 0.0 | 0.0 | 0.00 | 0.03 | 0.03 | 36 | 1014.2 |
| 20260905035004 | 58 | 146 | 0.0 | 0.0 | 0.00 | 0.03 | 0.03 | 37 | 1014.1 |
| 20260905034504 | 58 | 360 | 0.0 | 0.0 | 0.00 | 0.03 | 0.03 | 40 | 1014.1 |
| 20260905034102 | 58 | 360 | 0.0 | 0.0 | 0.00 | 0.03 | 0.03 | 43 | 1014.0 |
| 20260905033559 | 58 | 360 | 0.0 | 0.0 | 0.00 | 0.03 | 0.03 | 48 | 1013.9 |
| 20260905033057 | 58 | 360 | 0.0 | 0.0 | 0.00 | 0.03 | 0.03 | 52 | 1014.0 |
| 20260905032558 | 59 | 360 | 0.0 | 0.0 | 0.00 | 0.03 | 0.03 | 56 | 1013.9 |
| 20260905032054 | 59 | 63 | 0.0 | 0.0 | 0.00 | 0.03 | 0.03 | 59 | 1013.9 |
| 20260905031556 | 60 | 63 | 0.0 | 0.0 | 0.00 | 0.03 | 0.03 | 60 | 1013.8 |
| 20260905031052 | 60 | 63 | 0.0 | 0.0 | 0.00 | 0.03 | 0.03 | 61 | 1013.7 |
| 20260905030550 | 60 | 63 | 0.0 | 0.0 | 0.00 | 0.03 | 0.03 | 62 | 1013.7 |
| 20260905025549 | 61 | 63 | 0.0 | 0.0 | 0.00 | 0.03 | 0.03 | 64 | 1013.6 |
| 20260905025047 | 61 | 261 | 0.0 | 0.0 | 0.00 | 0.03 | 0.03 | 64 | 1013.6 |
| 20260905024550 | 62 | 261 | 0.0 | 0.0 | 0.00 | 0.03 | 0.03 | 65 | 1013.6 |
| 20260905024044 | 62 | 261 | 0.0 | 0.0 | 0.00 | 0.03 | 0.03 | 65 | 1013.6 |
| 20260905023543 | 62 | 261 | 0.0 | 0.0 | 0.00 | 0.03 | 0.03 | 65 | 1013.6 |
| 20260905023042 | 62 | 261 | 0.0 | 0.0 | 0.00 | 0.03 | 0.03 | 66 | 1013.5 |
| 20260905022540 | 63 | 261 | 0.0 | 0.0 | 0.00 | 0.03 | 0.03 | 65 | 1013.5 |
| 20260905022039 | 63 | 264 | 0.0 | 0.0 | 0.00 | 0.03 | 0.03 | 66 | 1013.4 |
| 20260905021541 | 63 | 264 | 0.0 | 0.0 | 0.00 | 0.03 | 0.03 | 66 | 1013.5 |
| 20260905021035 | 63 | 264 | 0.0 | 0.0 | 0.00 | 0.03 | 0.03 | 66 | 1013.4 |
| 20260905020536 | 64 | 264 | 0.0 | 0.0 | 0.00 | 0.03 | 0.03 | 65 | 1013.4 |
| 20260905020032 | 64 | 279 | 0.0 | 0.0 | 0.00 | 0.03 | 0.03 | 65 | 1013.4 |
| 20260905015531 | 64 | 279 | 0.0 | 0.0 | 0.00 | 0.03 | 0.03 | 65 | 1013.4 |
| 20260905015030 | 64 | 276 | 0.0 | 0.0 | 0.00 | 0.03 | 0.03 | 65 | 1013.3 |
| 20260905014531 | 64 | 259 | 0.0 | 0.0 | 0.00 | 0.03 | 0.03 | 65 | 1013.2 |
| 20260905014027 | 64 | 277 | 0.0 | 0.0 | 0.00 | 0.03 | 0.03 | 65 | 1013.1 |
| 20260905013528 | 64 | 240 | 0.0 | 0.0 | 0.00 | 0.03 | 0.03 | 65 | 1013.2 |
| 20260905013025 | 64 | 290 | 0.0 | 0.0 | 0.00 | 0.03 | 0.03 | 65 | 1013.0 |
| 20260905012522 | 64 | 265 | 0.0 | 0.0 | 0.00 | 0.03 | 0.03 | 65 | 1013.0 |
| 20260905012021 | 65 | 286 | 0.0 | 0.0 | 0.00 | 0.03 | 0.03 | 65 | 1012.9 |
| 20260905011519 | 64 | 294 | 0.0 | 0.0 | 0.00 | 0.03 | 0.03 | 65 | 1012.9 |
| 20260905011019 | 64 | 271 | 0.0 | 0.0 | 0.00 | 0.03 | 0.03 | 64 | 1012.9 |
| 20260905010518 | 64 | 290 | 0.0 | 0.0 | 0.00 | 0.03 | 0.03 | 65 | 1013.0 |
| 20260905010016 | 64 | 243 | 0.0 | 0.0 | 0.00 | 0.12 | 0.03 | 65 | 1012.8 |
| 20260905005513 | 64 | 281 | 0.0 | 0.0 | 0.00 | 0.12 | 0.03 | 65 | 1012.8 |
| 20260905005012 | 64 | 292 | 0.0 | 0.0 | 0.00 | 0.12 | 0.03 | 65 | 1012.9 |
| 20260905004510 | 64 | 286 | 0.0 | 0.0 | 0.00 | 0.12 | 0.03 | 65 | 1012.8 |
| 20260905004009 | 64 | 283 | 0.0 | 0.0 | 0.00 | 0.12 | 0.03 | 65 | 1012.7 |
| 20260905003511 | 64 | 296 | 0.0 | 0.0 | 0.00 | 0.12 | 0.03 | 65 | 1012.6 |
| 20260905003009 | 64 | 287 | 0.0 | 0.0 | 0.00 | 0.12 | 0.03 | 65 | 1012.6 |
| 20260905002505 | 65 | 262 | 0.0 | 0.0 | 0.00 | 0.12 | 0.03 | 65 | 1012.7 |
| 20260905002003 | 65 | 281 | 0.0 | 0.0 | 0.00 | 0.12 | 0.03 | 64 | 1012.7 |
| 20260905001502 | 66 | 302 | 0.0 | 0.0 | 0.00 | 0.12 | 0.03 | 62 | 1012.7 |
| 20260905001100 | 66 | 279 | 0.0 | 0.0 | 0.00 | 0.12 | 0.03 | 62 | 1012.6 |
| 20260905000559 | 67 | 269 | 0.0 | 0.0 | 0.00 | 0.12 | 0.03 | 61 | 1012.6 |
| 20260905000103 | 67 | 281 | 0.0 | 0.0 | 0.00 | 0.12 | 0.03 | 61 | 1012.6 |
| 20260904235556 | 68 | 323 | 0.0 | 0.0 | 0.00 | 0.13 | 0.03 | 60 | 1012.5 |
| 20260904235054 | 67 | 303 | 0.0 | 0.0 | 0.00 | 0.13 | 0.03 | 61 | 1012.4 |
| 20260904234558 | 67 | 286 | 0.0 | 0.0 | 0.00 | 0.13 | 0.03 | 63 | 1012.3 |
| 20260904234053 | 67 | 288 | 0.0 | 0.0 | 0.00 | 0.13 | 0.03 | 61 | 1012.3 |
| 20260904233550 | 67 | 285 | 0.0 | 0.0 | 0.00 | 0.13 | 0.03 | 59 | 1012.3 |
| 20260904233051 | 67 | 293 | 0.0 | 0.0 | 0.00 | 0.13 | 0.03 | 57 | 1012.3 |
| 20260904232548 | 67 | 273 | 0.0 | 0.0 | 0.00 | 0.13 | 0.03 | 57 | 1012.4 |
| 20260904232045 | 66 | 260 | 0.0 | 0.0 | 0.00 | 0.13 | 0.03 | 57 | 1012.4 |
| 20260904231544 | 66 | 274 | 0.0 | 0.0 | 0.00 | 0.13 | 0.03 | 61 | 1012.3 |
| 20260904231043 | 65 | 232 | 0.0 | 0.0 | 0.00 | 0.13 | 0.03 | 62 | 1012.3 |
| 20260904230541 | 65 | 304 | 0.0 | 0.0 | 0.00 | 0.13 | 0.03 | 63 | 1012.4 |
| 20260904230040 | 65 | 296 | 0.0 | 0.0 | 0.00 | 0.13 | 0.03 | 63 | 1012.3 |
| 20260904225539 | 65 | 304 | 0.0 | 0.0 | 0.00 | 0.13 | 0.03 | 63 | 1012.4 |
| 20260904225038 | 65 | 292 | 0.0 | 0.0 | 0.00 | 0.13 | 0.03 | 63 | 1012.4 |
| 20260904224535 | 65 | 309 | 0.0 | 0.0 | 0.00 | 0.13 | 0.03 | 60 | 1012.3 |
| 20260904224034 | 65 | 281 | 0.0 | 0.0 | 0.00 | 0.13 | 0.03 | 60 | 1012.2 |
| 20260904223532 | 66 | 273 | 0.0 | 0.0 | 0.00 | 0.13 | 0.03 | 60 | 1012.3 |
| 20260904223043 | 66 | 275 | 0.0 | 0.0 | 0.00 | 0.13 | 0.03 | 60 | 1012.2 |
| 20260904222530 | 66 | 252 | 0.0 | 0.0 | 0.00 | 0.13 | 0.03 | 59 | 1012.1 |
| 20260904222029 | 66 | 284 | 0.0 | 0.0 | 0.00 | 0.13 | 0.03 | 58 | 1012.0 |
| 20260904221542 | 66 | 257 | 0.0 | 0.0 | 0.00 | 0.13 | 0.03 | 56 | 1012.0 |
| 20260904221025 | 66 | 257 | 0.0 | 0.0 | 0.00 | 0.13 | 0.03 | 55 | 1012.1 |
| 20260904220523 | 66 | 265 | 0.0 | 0.0 | 0.00 | 0.13 | 0.03 | 57 | 1012.2 |
| 20260904220022 | 66 | 241 | 0.0 | 0.0 | 0.00 | 0.13 | 0.03 | 58 | 1012.0 |
| 20260904215520 | 66 | 298 | 0.0 | 0.0 | 0.00 | 0.13 | 0.03 | 57 | 1012.1 |
| 20260904215020 | 66 | 277 | 0.0 | 0.0 | 0.00 | 0.13 | 0.03 | 55 | 1012.2 |
| 20260904214519 | 66 | 284 | 0.0 | 0.0 | 0.00 | 0.13 | 0.03 | 55 | 1012.1 |
| 20260904214016 | 67 | 262 | 0.0 | 0.0 | 0.00 | 0.13 | 0.03 | 56 | 1012.1 |
| 20260904213515 | 66 | 258 | 0.0 | 0.0 | 0.00 | 0.13 | 0.03 | 56 | 1012.1 |
| 20260904213016 | 66 | 219 | 0.0 | 0.0 | 0.00 | 0.13 | 0.03 | 58 | 1012.2 |
| 20260904212512 | 66 | 246 | 0.0 | 0.0 | 0.00 | 0.13 | 0.03 | 58 | 1012.2 |
| 20260904212011 | 66 | 305 | 0.0 | 0.0 | 0.01 | 0.13 | 0.03 | 60 | 1012.1 |
| 20260904211509 | 66 | 279 | 0.0 | 0.0 | 0.01 | 0.13 | 0.03 | 58 | 1012.1 |
| 20260904211011 | 66 | 298 | 0.0 | 0.0 | 0.01 | 0.13 | 0.03 | 59 | 1012.0 |
| 20260904210505 | 66 | 299 | 0.0 | 0.0 | 0.01 | 0.13 | 0.03 | 59 | 1012.1 |
| 20260904210004 | 66 | 296 | 0.0 | 0.0 | 0.01 | 0.13 | 0.03 | 60 | 1012.0 |
| 20260904205503 | 66 | 265 | 0.0 | 0.0 | 0.01 | 0.13 | 0.03 | 61 | 1012.1 |
| 20260904205002 | 65 | 281 | 0.0 | 0.0 | 0.01 | 0.13 | 0.03 | 64 | 1012.0 |
| 20260904204600 | 65 | 281 | 0.0 | 0.0 | 0.01 | 0.13 | 0.03 | 63 | 1012.0 |
| 20260904204059 | 64 | 273 | 0.0 | 0.0 | 0.01 | 0.13 | 0.03 | 63 | 1012.0 |
| 20260904203557 | 64 | 273 | 0.0 | 0.0 | 0.01 | 0.13 | 0.03 | 64 | 1012.1 |
| 20260904203056 | 64 | 273 | 0.0 | 0.0 | 0.01 | 0.13 | 0.03 | 63 | 1012.0 |
| 20260904202555 | 64 | 273 | 0.0 | 0.0 | 0.01 | 0.13 | 0.03 | 65 | 1012.2 |